Location: Zagreb
(45.8000°N, 16.0000°E)
Time: 15:27:45
(UTC+02:00)

Tiros 1 despin weight - Pass Details

Date: 16 August 2022
Orbit: 590 x 639 km, 48.2° (Epoch: 23 September)

Event Time Altitude Azimuth Distance (km) Brightness Sun altitude
Rises 16:05:24 0° 288° (WNW) 2,840 ? 39.6°
Reaches altitude 10° 16:07:43 10° 287° (WNW) 1,930 ? 39.2°
Maximum altitude 16:12:07 71° 203° (SSW) 628 ? 38.5°
Drops below altitude 10° 16:16:28 10° 120° (ESE) 1,912 ? 37.8°
Sets 16:18:45 0° 119° (ESE) 2,811 ? 37.4°
